Tracking 19796 objects as of 19-Jul-2019
HD Live streaming from Space Station
objects crossing your sky now

HELLAS-SAT 2

Track HELLAS-SAT 2 now!
HELLAS-SAT 2 is classified as:


NORAD ID: 27811
Int'l Code: 2003-020A
Perigee: 35,780.4 km
Apogee: 35,807.1 km
Inclination: 1.1 °
Period: 1,436.1 minutes
Semi major axis: 42164 km
RCS: 15.8489 m2 (large)
Launch date: May 13, 2003
Source: Greece (GREC)
Launch site: AIR FORCE EASTERN TEST RANGE (AFETR)

30 Ku-band; television broadcasting services for the 2004 Summer Olympic Games in Athens.
aabbcc
Your satellite tracking list
Your tracking list is empty




NASA's NSSDC Master Catalog

Two Line Element Set (TLE):
1 27811U 03020A   19199.72896545 -.00000159 +00000-0 +00000-0 0  9995
2 27811 001.1331 096.1180 0003157 014.5145 352.8178 01.00271787017534
Source of the keplerian elements: AFSPC